Other Public Products
Issued by NWS Grand Forks, ND

Home | Current Version | Previous Version | Graphics & Text | Print | Product List | Glossary On
Versions: 1 2 3 4 5 6 7 8 9 10 11 12 13 14 15 16 17 18 19 20 21 22 23 24 25 26 27 28 29 30 31 32 33 34 35 36 37 38 39 40 41 42 43 44 45 46 47 48 49 50
000
FPUS83 KFGF 112031
OPUFGF
PRAIRIE TO PINES WEATHER ROUNDUP
NATIONAL WEATHER SERVICE EASTERN NORTH DAKOTA/GRAND FORKS ND
200 PM CST MON DEC 11 2017

 **SATELLITE DATA USED TO AUGMENT SKY COVER AT AUTOMATED STATIONS**
 *****  WEATHER ACROSS EASTERN NORTH DAKOTA  *****

CITY           SKY/WX    TMP DP  RH WIND       PRES   REMARKS
GRAND FORKS    FAIR      16  10  77 N24G32    30.25R WCI  -2
GRND FORKS AFB MOSUNNY   18  10  69 N22       30.25R WCI   1
GRND FORKS NWS   N/A     16 N/A N/A N16         N/A  WCI   0
BUXTON           N/A     17  12  81 N21G33      N/A  WCI   0
DEVILS LAKE    PTSUNNY   20  13  74 N21       30.26S WCI   4
FARGO          FLURRIES  20  13  74 N29G38    30.20R WCI   1
WAHPETON ARPT    N/A     23  14  68 N23G33    30.18R WCI   7
$$

 *****  WEATHER ACROSS CENTRAL AND WESTERN NORTH DAKOTA  *****

CITY           SKY/WX    TMP DP  RH WIND       PRES   REMARKS
JAMESTOWN      CLOUDY    23  16  74 N22G30    30.23R WCI   8
BISMARCK       PTSUNNY   37  24  59 N16       30.28R
MINOT          PTSUNNY   31  20  63 N13       30.29S WCI  21
MINOT AFB      FAIR      28  19  69 N7        30.28F WCI  21
GARRISON         N/A     34  23  64 N13       30.27S WCI  25
WILLISTON      CLOUDY    38  27  64 N13       30.35S
DICKINSON      CLOUDY    35  30  82 NW23      30.29R WCI  23
HETTINGER      CLOUDY    36  28  73 NW23G31   30.31R
$$

 *****  OTHER OBSERVATIONS NORTHEAST NORTH DAKOTA  *****

CITY           SKY/WX    TMP DP  RH WIND       PRES   REMARKS
WALHALLA       FAIR      16  10  79 N18       30.29R WCI  -1
LANGDON        NOT AVBL
CAVALIER       FAIR      14   7  73 N18G24    30.28R WCI  -3
GRAFTON        NOT AVBL
CANDO          MOCLDY    21  16  79 N10G21    30.30R WCI  10
FORT TOTTEN      N/A     21  13  71 N7        29.95S WCI  12
ROLLA          MOCLDY    21  14  73 NW14G20   30.26R WCI   8
RUGBY          NOT AVBL
 ***** THE ABOVE OBSERVATIONS ARE NON NWS ARE NOT QUALITY
        CONTROLLED AND MAY MIS-REPORT RAIN FOR SNOW...
$$

 *****  OTHER OBSERVATIONS SOUTHEAST NORTH DAKOTA *****

CITY           SKY/WX    TMP DP  RH WIND       PRES   REMARKS
COOPERSTOWN    FAIR      21  16  79 NW23G30   30.23R WCI   5
VALLEY CITY    NOT AVBL
OAKES            N/A     25  16  68 N26G35    30.22R WCI   9
GWINNER          N/A     25  16  68 N22G30    30.21R WCI  10
SHEYENNE NWR     N/A     24  15  67 N15       29.95S WCI  11
BUFFALO          N/A     22  13  68 W21G33      N/A  WCI   6
WYNDMERE       NOT AVBL
 ***** THE ABOVE OBSERVATIONS ARE NON NWS ARE NOT QUALITY
       CONTROLLED AND MAY MIS-REPORT RAIN FOR SNOW...
$$

  *****  WEATHER ACROSS NORTHERN MINNESOTA  *****

CITY           SKY/WX    TMP DP  RH WIND       PRES   REMARKS
FLAG ISLAND    FAIR      14   7  73 N23G30    30.12R WCI  -5
WARROAD        LGT SNOW  16   9  73 NW13G22   30.15R WCI   2
ROSEAU         FAIR      16   9  73 NW15      30.16R WCI   1
HALLOCK        PTSUNNY   12   9  85 N21G29    30.25R WCI  -6
THF RVR FALLS  FAIR      14   8  77 N23       30.18R WCI  -5
HALSTAD        NOT AVBL
FOSSTON        LGT SNOW  18  10  73 NW20G30   30.14R WCI   1
BAUDETTE       PTSUNNY   17  10  74 N16       30.09R WCI   2
WASKISH        PTSUNNY   19  10  68 N12G20    30.08R WCI   7
CROOKSTON      LGT SNOW  14  10  85 N28       30.22R WCI  -6
$$
  *****  WEATHER ACROSS CENTRAL AND WEST MINNESOTA  *****

CITY           SKY/WX    TMP DP  RH WIND       PRES   REMARKS
BEMIDJI        PTSUNNY   20  13  75 NW20G26   30.05R WCI   5
PARK RAPIDS    PTSUNNY   23  15  71 N15G23    30.02R WCI  10
WADENA         CLOUDY    23  16  74 NW21G26   30.03R WCI   8
DETROIT LAKES  LGT SNOW  19  18  93 NW20G28   30.12R WCI   4
MOORHEAD       PTSUNNY   18  10  73 N23       30.20R WCI   0
FERGUS FALLS   CLOUDY    19  14  79 N25G33    30.15R WCI   2
ELBOW LAKE     CLOUDY    22  16  78 NW26G35   30.11R HAZE    WCI   5
MORRIS MN      CLOUDY    25  16  68 NW26G41   30.09R WCI   9
STAPLES        CLOUDY    25  16  68 N17G24    30.02R WCI  11
WHEATON        CLOUDY    23  16  74 NW25G33   30.18R WCI   7
$$
  *****  WEATHER ELSEWHERE ACROSS MINNESOTA  *****

CITY           SKY/WX    TMP DP  RH WIND       PRES   REMARKS
DULUTH         FLURRIES  22  15  75 N26G36    29.85R WCI   5
INTRNTL FALLS  CLOUDY    17   7  64 N22       30.02R WCI   0
ELY            FLURRIES  16   9  73 NW14G26   29.90R WCI   1
CLOQUET        FLURRIES  23  16  74 NW16G28   29.90R WCI  10
BRAINERD       CLOUDY    25  17  72 N23G31    29.98R WCI  10
HIBBING        CLOUDY    18  10  71 N20G36    29.94R BLWGSNOWWCI   2
ALEXANDRIA     CLOUDY    25  18  74 NW21G32   30.03R WCI  11
SAINT CLOUD    CLOUDY    30  23  75 N21G31    29.94R WCI  17
MINNEAPOLIS    CLOUDY    34  28  79 N22G29    29.88R WCI  22
$$

  *****  WEATHER ACROSS SOUTH DAKOTA  *****

CITY           SKY/WX    TMP DP  RH WIND       PRES   REMARKS
SIOUX FALLS    CLOUDY    36  29  75 N30G38    30.07R
BROOKINGS      CLOUDY    31  26  82 N23G29    30.07R WCI  18
WATERTOWN      CLOUDY    27  22  81 N25G37    30.11R WCI  12
HURON          PTSUNNY   38  29  70 N28G35    30.16R
SISSETON         N/A     27  21  78 N25G36    30.15R WCI  12
ABERDEEN       FAIR      31  20  63 N22G37    30.23R WCI  18
MITCHELL       CLOUDY    39  31  72 N25G37    30.17R
PIERRE         LGT RAIN  36  35  96 NW21      30.25R
MOBRIDGE       CLOUDY    39  27  62 N22G30    30.23R
RAPID CITY     FAIR      44  22  41 NW36G48   30.30R
$$

  *****  SOME WEATHER IN NEARBY STATES *****

CITY           SKY/WX    TMP DP  RH WIND       PRES   REMARKS
GLASGOW MT     CLOUDY    40  27  59 W12       30.40F
GREAT FALLS MT FAIR      51  14  22 SW14      30.39F
CHEYENNE WY    FAIR      50   8  18 NW23G35   30.35F
SCOTTSBLUFF NE FAIR      52  12  20 NW26G38   30.33F
OMAHA NE       CLOUDY    47  32  56 NW25G38   30.00R
DES MOINES IA  CLOUDY    43  32  65 NW22G41   29.86R
DAVENPORT IA   FAIR      42  26  53 NW17      29.71R
CHICAGO IL     CLOUDY    38  25  59 SE7       29.67F
EAU CLAIRE WI  CLOUDY    31  25  78 N15G21    29.80R WCI  20
LA CROSSE WI   CLOUDY    32  27  81 NW8       29.78R WCI  25
$$

  *****  SOME NATIONAL WEATHER *****

CITY           SKY/WX    TMP DP  RH WIND       PRES   REMARKS
LA GUARDIA NY  FAIR      42  19  39 W10       29.99R
RALEIGH NC     FAIR      54  29  38 SW6       30.03F
ATLANTA GA     FAIR      61  34  36 W9        30.05F
NEW ORLEANS LA PTSUNNY   69  38  32 SW10      30.18F
OKLAHOMA CITY  FAIR      64  14  14 NW14      30.11F
ALBUQUERQUE NM PTSUNNY   45  -1  14 CALM      30.40F
SALT LAKE CITY FOG       29  26  89 NW6       30.60F VSB 1/4 WCI  23
LOS ANGELES CA PTSUNNY   82   9   6 CALM      30.18F
BOISE ID       CLOUDY    25  20  81 S3        30.67F
SEATTLE WA     FAIR      39  37  92 W7        30.35R
$$

*** WEATHER ACROSS MANITOBA...SASKATCHEWAN AND ONTARIO ***
                ***ONTARIO***

CITY           SKY/WX    TMP DP  RH WIND       PRES   REMARKS
GERALDTON      LGT SNOW   9   3  78 N12G25    29.74R DRFTSNOWWCI  -6
THUNDER BAY    PTSUNNY   18  10  73 N10G20    29.82R WCI   6
SIOUX LOOKOUT  FLURRIES   9   1  72 NW9G17    29.97R WCI  -5
TORONTO        FLURRIES  25  18  74 SE8       29.91F WCI  16
BIG TROUT LK   FLURRIES   0  -6  78 NW14      29.96S WCI -19
PICKLE LAKE    FLURRIES   0  -6  78 NW10G20   29.93R WCI -17
DRYDEN         CLOUDY    10   3  72 NW10G21   30.00R WCI  -3
KENORA         FLURRIES  10   5  79 N13G23    30.07R WCI  -5
$$
                *** MANITOBA***

CITY           SKY/WX    TMP DP  RH WIND       PRES   REMARKS
BRANDON        PTSUNNY   21  12  68 N6        30.29S WCI  14
DAUPHIN        CLOUDY    14  10  85 CALM      30.32S
ISLAND LAKE    PTCLDY    -4  -9  77 NW13      30.14S WCI -23
PILOT MOUND      N/A     16  10  79 N13         N/A  WCI   2
THE PAS        FLURRIES  10   5  79 NW7       30.29F WCI   0
THOMPSON       CLEAR     -2  -9  71 NW9       30.22F WCI -18
WINNIPEG       MOSUNNY   12   3  67 NW18      30.28R WCI  -5
LYNN LAKE      CLOUDY     1  -2  85 W7        30.21F WCI -11
CHURCHILL      CRYSTALS -11 -18  70 NW16G25   30.11R WCI -34
GILLAM         MOCLDY    -9 -15  77 NW14G20   30.15R WCI -31
$$
                ***SASKATCHEWAN***

CITY           SKY/WX    TMP DP  RH WIND       PRES   REMARKS
ESTEVAN        PTSUNNY   32  25  74 NW12G17   30.31S WCI  23
KINDERSLEY     MOSUNNY   36  25  64 W6        30.32F
LLOYDMINSTER   MOSUNNY   37  27  65 W10       30.24F
PRINCE ALBERT  PTSUNNY   34  30  86 SW3       30.24F
REGINA         CLOUDY    34  30  86 NW7       30.31S
YORKTON        CLOUDY    21  18  86 W7        30.28F WC



USA.gov is the U.S. government's official web portal to all federal, state and local government web resources and services.